This demonstration page uses our WeatherBlox Daily Observations layout. Learn more.

Left ArrowRight Arrow

38.80484, -77.04692

Hourly Observations for April 16, 2016

Temp ( °F °C ) Dew Point ( °F °C ) Humidity (%) Winds ( mph kmh ) Pressure ( in mb ) Visibility ( mi km ) Precip ( " mm )
12:52 am 00:52 Clear 49 9.4 38 3.3 66 66 SSW 8 13 30.42 1030 10 16 0.00 0.00
1:52 am 01:52 Clear 48 8.9 38 3.3 68 68 SSW 8 13 30.42 1030 10 16 0.00 0.00
2:52 am 02:52 Clear 47 8.3 37 2.8 69 69 SSW 8 13 30.41 1030 10 16 0.00 0.00
3:52 am 03:52 Mostly Clear 47 8.3 37 2.8 69 69 SSW 3 6 30.40 1029 10 16 0.00 0.00
4:52 am 04:52 Clear 46 7.8 35 1.7 66 66 SSW 5 7 30.39 1029 10 16 0.00 0.00
5:52 am 05:52 Clear 46 7.8 35 1.7 66 66 SSW 3 6 30.40 1029 10 16 0.00 0.00
6:52 am 06:52 Mostly Sunny 46 7.8 34 1.1 63 63 SW 3 6 30.41 1030 10 16 0.00 0.00
7:52 am 07:52 Mostly Sunny 49 9.4 36 2.2 61 61 VRB 3 6 30.42 1030 10 16 0.00 0.00
8:52 am 08:52 Mostly Sunny 53 11.7 39 3.9 59 59 NNE 3 6 30.43 1031 10 16 0.00 0.00
9:52 am 09:52 Mostly Sunny 59 15 38 3.3 46 46 NE 3 6 30.44 1031 10 16 0.00 0.00
10:52 am 10:52 Sunny 64 17.8 38 3.3 38 38 ENE 3 6 30.44 1031 10 16 0.00 0.00
11:52 am 11:52 Mostly Sunny 67 19.4 37 2.8 33 33 NNE 6 9 30.42 1030 10 16 0.00 0.00
12:52 pm 12:52 Mostly Sunny 69 20.6 36 2.2 30 30 NNE 8 13 30.41 1030 10 16 0.00 0.00
1:52 pm 13:52 Mostly Sunny 70 21.1 35 1.7 28 28 E 6 9 30.39 1029 10 16 0.00 0.00
2:52 pm 14:52 Mostly Sunny 71 21.7 32 0 24 24 NE 8 13 30.38 1029 10 16 0.00 0.00
3:52 pm 15:52 Mostly Sunny 71 21.7 33 0.6 25 25 ENE 7 11 30.36 1028 10 16 0.00 0.00
4:52 pm 16:52 Mostly Sunny 70 21.1 35 1.7 28 28 E 7 11 30.35 1028 10 16 0.00 0.00
5:52 pm 17:52 Mostly Sunny 69 20.6 37 2.8 31 31 ENE 12 19 30.36 1028 10 16 0.00 0.00
6:52 pm 18:52 Mostly Sunny 66 18.9 37 2.8 34 34 E 13 20 30.37 1028 10 16 0.00 0.00
7:52 pm 19:52 Mostly Clear 62 16.7 36 2.2 38 38 SE 6 9 30.37 1029 10 16 0.00 0.00
8:52 pm 20:52 Clear 60 15.6 39 3.9 46 46 ESE 5 7 30.40 1029 10 16 0.00 0.00
9:52 pm 21:52 Clear 60 15.6 33 0.6 36 36 SSE 5 7 30.40 1030 10 16 0.00 0.00
10:52 pm 22:52 Clear 56 13.3 34 1.1 44 44 SE 5 7 30.42 1030 10 16 0.00 0.00
11:52 pm 23:52 Clear 54 12.2 38 3.3 55 55 SSW 13 20 30.42 1030 10 16 0.00 0.00

Powered by AerisWeather